Flag for Netherlands Weather past 2 weeks in Amsterdam, Netherlands

Now
54 °F

Passing clouds.


Feels Like: 53 °F
Forecast: 56 / 66 °F
Wind: 3 mph from South

Location: Amsterdam Schiphol Airport

Current Time: Sep 30, 2014 at 11:33:46 PM

Latest Report: Sep 30, 2014 at 10:55 PM


Visibility: 4 mi

Pressure: 30.27 "Hg

Humidity: 100%

Dew point: 54 °F

Location of AmsterdamLocation

Historic Weather in Amsterdam — Graph

°F

Amsterdam temperature yesterday

Maximum temperature yesterday: 68 °F (at 1:55 PM)
Minimum temperature yesterday: 55 °F (at 3:55 AM)
Average temperature yesterday: 61 °F

Past Weeks' High & Low Weather Summary

 TemperatureHumidityPressure
High77 °F (Sep 17, 3:25 PM)100% (Sep 16, 12:25 AM)30.36 "Hg (Sep 16, 12:25 AM)
Low48 °F (Sep 23, 2:25 AM)45% (Sep 22, 2:25 PM)29.80 "Hg (Sep 18, 2:25 PM)
Average62 °F84%30.05 "Hg
* Reported Sep 15 10:25 PM — Sep 30 10:25 PM, Amsterdam, Weather by CustomWeather, © 2014

Note: Actual official high and low records may vary slightly from our data, if they occured in-between our weather recording intervals... More about our weather records

Advertising

Amsterdam weather history for previous 24 hours

 ConditionsComfort  
Time TempWeatherWind HumidityBarometerVisibility
10:25 PM
Sep 30
55 °FFog.5 mph94%30.24 "Hg4 mi
9:55 PM55 °FFog.6 mph100%30.24 "Hg4 mi
9:25 PM55 °FClear.6 mph100%30.24 "Hg5 mi
8:55 PM57 °FClear.5 mph88%30.24 "Hg6 mi
8:25 PM57 °FPassing clouds.6 mph94%30.24 "HgN/A
7:55 PM59 °FSunny.7 mph94%30.24 "Hg10 mi
7:25 PM59 °FPassing clouds.6 mph88%30.24 "HgN/A
6:55 PM61 °FSunny.8 mph88%30.24 "Hg10 mi
6:25 PM63 °FPassing clouds.10 mph83%30.24 "HgN/A
5:55 PM64 °FPassing clouds.9 mph78%30.24 "HgN/A
5:25 PM64 °FPassing clouds.9 mph78%30.24 "HgN/A
4:55 PM64 °FScattered clouds.9 mph83%30.24 "HgN/A
4:25 PM66 °FScattered clouds.10 mph78%30.24 "HgN/A
3:55 PM64 °FPartly sunny.12 mph83%30.24 "HgN/A
3:25 PM64 °FPartly sunny.14 mph78%30.24 "HgN/A
2:55 PM66 °FPartly sunny.14 mph78%30.24 "HgN/A
2:25 PM64 °FPartly sunny.14 mph83%30.24 "HgN/A
1:55 PM64 °FPartly sunny.14 mph78%30.24 "HgN/A
1:25 PM64 °FPartly sunny.14 mph78%30.24 "HgN/A
12:55 PM64 °FPartly sunny.14 mph83%30.24 "HgN/A
12:25 PM64 °FScattered clouds.15 mph83%30.24 "HgN/A
11:55 AM64 °FScattered clouds.15 mph88%30.21 "HgN/A
11:25 AM64 °FScattered clouds.9 mph88%30.21 "Hg6 mi
10:55 AM64 °FScattered clouds.10 mph88%30.21 "Hg6 mi
10:25 AM64 °FScattered clouds.10 mph88%30.21 "Hg5 mi
9:55 AM63 °FScattered clouds.10 mph88%30.21 "Hg4 mi
9:25 AM61 °FFog.9 mph94%30.18 "Hg3 mi
8:55 AM61 °FFog.9 mph94%30.18 "Hg3 mi
8:25 AM59 °FFog.10 mph100%30.18 "Hg2 mi
7:55 AM59 °FFog.10 mph100%30.18 "Hg1 mi
7:25 AM59 °FFog.10 mph100%30.15 "Hg1 mi
6:55 AM59 °FFog.8 mph100%30.15 "Hg2 mi
6:25 AM61 °FFog.7 mph94%30.15 "Hg2 mi
5:55 AM59 °FFog.8 mph100%30.15 "Hg2 mi
5:25 AM59 °FFog.8 mph100%30.15 "Hg2 mi
4:55 AM61 °FFog.7 mph100%30.15 "Hg3 mi
4:25 AM61 °FFog.9 mph100%30.15 "Hg3 mi
3:55 AM63 °FFog.8 mph94%30.15 "Hg2 mi
3:25 AM61 °FFog.8 mph100%30.15 "Hg2 mi
2:55 AM61 °FFog.6 mph100%30.15 "Hg2 mi
2:25 AM61 °FFog.7 mph100%30.15 "Hg2 mi
1:55 AM61 °FFog.7 mph100%30.15 "Hg2 mi
1:25 AM61 °FFog.3 mph100%30.15 "Hg2 mi
12:55 AM61 °FDrizzle. Fog.5 mph100%30.15 "Hg2 mi
12:25 AM61 °FFog.6 mph100%30.15 "Hg2 mi
11:55 PM
Sep 29
61 °FFog.6 mph100%30.15 "Hg3 mi
11:25 PM61 °FFog.7 mph100%30.15 "Hg3 mi
Weather by CustomWeather, © 2014

See weather overviewHow to use our weather pages